Inverness, United Kingdom

8:01 AM BST on April 27, 2018 (GMT +0100)
Inverness

Weather History for EGPE - March, 2013

Change the Weather History Date:

Sunday, March 3, 2013

  Actual Average Record
Temperature  
Mean Temperature 44 °F -  
Max Temperature 50 °F 46 °F 53 °F (2012)
Min Temperature 37 °F 33 °F 23 °F (2001)
Degree Days  
Heating Degree Days 22    
Moisture  
Dew Point 41 °F    
Average Humidity 89    
Maximum Humidity 100    
Minimum Humidity 76    
Precipitation  
Precipitation 0.00 in - - ()
Sea Level Pressure  
Sea Level Pressure 30.15 in    
Wind  
Wind Speed 3 mph ()    
Max Wind Speed 10 mph    
Max Gust Speed -    
Visibility 5.6 miles    
Events Fog    
Averages and records for this station are not official NWS values.
T = Trace of Precipitation, MM = Missing Value Source: Averaged Metar Reports

Daily Weather History Graph

Daily Weather History Graph

Search for Another Location

Airport or City:

Astronomy

Mar. 03, 2013 Rise Set
Actual Time 7:04 AM GMT 5:52 PM GMT
Civil Twilight 6:25 AM GMT 6:31 PM GMT
Nautical Twilight 5:41 AM GMT 7:16 PM GMT
Astronomical Twilight 4:55 AM GMT 8:02 PM GMT
Moon 12:32 AM GMT (3/3) 8:47 AM GMT (3/3)
Length of Visible Light 12h 05m
Length of Day
10h 48m
Waning Gibbous, 66% of the Moon is Illuminated
Mar 3
Waning Gibbous
Mar 4
Last Quarter
Mar 11
New
Mar 19
First Quarter
Mar 27
Full

Hourly Weather History & Observations

Time (GMT) Temp. Windchill Dew Point Humidity Pressure Visibility Wind Dir Wind Speed Gust Speed Precip Events Conditions
12:20 AM 41.0 °F - 39.2 °F 93% 30.27 in 1.7 mi Calm Calm - N/A   Mostly Cloudy
12:50 AM 41.0 °F 39.0 °F 41.0 °F 100% 30.27 in 4.3 mi SE 3.5 mph - N/A   Mostly Cloudy
1:20 AM 41.0 °F - 41.0 °F 100% 30.24 in 6.2 mi SSE 2.3 mph - N/A   Mostly Cloudy
1:50 AM 41.0 °F - 41.0 °F 100% 30.24 in - SE 2.3 mph - N/A   Mostly Cloudy
2:20 AM 41.0 °F - 39.2 °F 93% 30.24 in 6.2 mi Calm Calm - N/A   Mostly Cloudy
2:50 AM 41.0 °F 39.0 °F 39.2 °F 93% 30.24 in 5.6 mi NW 3.5 mph - N/A   Mostly Cloudy
3:20 AM 41.0 °F - 39.2 °F 93% 30.24 in 1.4 mi Calm Calm - N/A   Scattered Clouds
3:50 AM 39.2 °F - 39.2 °F 100% 30.21 in 6.2 mi South 2.3 mph - N/A   Overcast
4:20 AM 39.2 °F - 39.2 °F 100% 30.21 in 5.0 mi Calm Calm - N/A   Overcast
4:50 AM 39.2 °F - 39.2 °F 100% 30.21 in 1.8 mi Calm Calm - N/A   Overcast
5:20 AM 39.2 °F - 39.2 °F 100% 30.21 in 1.2 mi Calm Calm - N/A   Mostly Cloudy
5:50 AM 39.2 °F - 37.4 °F 93% 30.21 in 4.3 mi Calm Calm - N/A   Mostly Cloudy
6:50 AM 39.2 °F - 39.2 °F 100% 30.21 in 3.1 mi SSW 2.3 mph - N/A Fog Fog
7:20 AM 39.2 °F - 37.4 °F 93% 30.21 in 6.2 mi Calm Calm - N/A Fog Shallow Fog
7:50 AM 37.4 °F - 37.4 °F 100% 30.21 in 6.2 mi Calm Calm - N/A Fog Shallow Fog
8:20 AM 41.0 °F - 41.0 °F 100% 30.21 in 6.2 mi Calm Calm - N/A Fog Mostly Cloudy
8:50 AM 41.0 °F - 41.0 °F 100% 30.21 in 6.2 mi Calm Calm - N/A Fog Mostly Cloudy
9:20 AM 42.8 °F - 42.8 °F 100% 30.18 in 6.2 mi Calm Calm - N/A   Mostly Cloudy
9:50 AM 42.8 °F - 42.8 °F 100% 30.18 in 6.2 mi Calm Calm - N/A   Scattered Clouds
10:20 AM 46.4 °F - 42.8 °F 87% 30.18 in 6.2 mi Calm Calm - N/A   Scattered Clouds
10:50 AM 46.4 °F 45.2 °F 42.8 °F 87% 30.18 in 6.2 mi Variable 3.5 mph - N/A   Scattered Clouds
11:20 AM 46.4 °F 45.2 °F 42.8 °F 87% 30.18 in 6.2 mi Variable 3.5 mph - N/A   Scattered Clouds
11:50 AM 46.4 °F 45.2 °F 42.8 °F 87% 30.18 in 6.2 mi Variable 3.5 mph - N/A   Scattered Clouds
12:20 PM 48.2 °F - 42.8 °F 82% 30.15 in 6.2 mi West 5.8 mph - N/A   Scattered Clouds
12:50 PM 48.2 °F - 42.8 °F 82% 30.15 in 6.2 mi Variable 3.5 mph - N/A   Scattered Clouds
1:20 PM 50.0 °F - 42.8 °F 76% 30.15 in 6.2 mi WSW 6.9 mph - N/A   Mostly Cloudy
1:50 PM 50.0 °F - 42.8 °F 76% 30.12 in 6.2 mi WSW 6.9 mph - N/A   Mostly Cloudy
2:20 PM 50.0 °F - 42.8 °F 76% 30.12 in 6.2 mi WSW 8.1 mph - N/A   Mostly Cloudy
2:50 PM 50.0 °F - 42.8 °F 76% 30.12 in 6.2 mi WSW 9.2 mph - N/A   Mostly Cloudy
3:20 PM 48.2 °F - 42.8 °F 82% 30.09 in 6.2 mi SW 6.9 mph - N/A   Mostly Cloudy
3:50 PM 48.2 °F - 42.8 °F 82% 30.09 in 6.2 mi WSW 8.1 mph - N/A   Mostly Cloudy
4:20 PM 48.2 °F - 42.8 °F 82% 30.09 in 6.2 mi WSW 8.1 mph - N/A   Mostly Cloudy
4:50 PM 50.0 °F - 42.8 °F 76% 30.09 in 6.2 mi SW 8.1 mph - N/A   Mostly Cloudy
5:20 PM 46.4 °F 42.9 °F 41.0 °F 81% 30.09 in 6.2 mi SW 6.9 mph - N/A   Mostly Cloudy
5:50 PM 44.6 °F 41.4 °F 41.0 °F 87% 30.09 in 6.2 mi SW 5.8 mph - N/A   Mostly Cloudy
6:20 PM 44.6 °F 40.7 °F 41.0 °F 87% 30.09 in 6.2 mi SW 6.9 mph - N/A   Mostly Cloudy
6:50 PM 44.6 °F 39.7 °F 41.0 °F 87% 30.09 in 6.2 mi SW 9.2 mph - N/A   Mostly Cloudy
7:20 PM 42.8 °F 38.6 °F 39.2 °F 87% 30.09 in 6.2 mi SW 6.9 mph - N/A   Mostly Cloudy
7:50 PM 41.0 °F 36.4 °F 39.2 °F 93% 30.09 in 6.2 mi SW 6.9 mph - N/A   Scattered Clouds
8:20 PM 41.0 °F 35.8 °F 39.2 °F 93% 30.09 in 6.2 mi SW 8.1 mph - N/A   Scattered Clouds
8:50 PM 42.8 °F 38.6 °F 39.2 °F 87% 30.09 in 6.2 mi SW 6.9 mph - N/A   Scattered Clouds
9:20 PM 42.8 °F 38.0 °F 39.2 °F 87% 30.09 in 6.2 mi SW 8.1 mph - N/A   Scattered Clouds
9:50 PM 42.8 °F 37.5 °F 39.2 °F 87% 30.09 in 6.2 mi SW 9.2 mph - N/A   Mostly Cloudy
10:20 PM 42.8 °F 37.5 °F 37.4 °F 81% 30.09 in 6.2 mi SW 9.2 mph - N/A   Mostly Cloudy
10:50 PM 42.8 °F 37.0 °F 37.4 °F 81% 30.06 in 6.2 mi SW 10.4 mph - N/A   Mostly Cloudy
11:20 PM 42.8 °F 38.0 °F 37.4 °F 81% 30.06 in 6.2 mi SW 8.1 mph - N/A   Mostly Cloudy
11:50 PM 41.0 °F 37.1 °F 37.4 °F 87% 30.06 in 6.2 mi WSW 5.8 mph - N/A   Overcast